sat.trackr.live / text

‹ back to catalog

COSMOS 2409

NORAD 28420 · 2004-037B

PAYLOAD ACTIVE UNKNOWN

§ Identity

Operator
Country
CIS
Launch date
2004-09-23
Launch site
PLMSC
Launch vehicle
Mass (kg)
RCS (m²)
0.92

External: N2YO · Heavens-Above · Gunter

§ Orbital elements

Epoch: 2026-09-20T00:15:04.652928Z

Period
115.63 min
Inclination
82.4799°
Eccentricity
0.0014816
Mean motion
12.45324811 rev/d
Perigee alt
1,472.5 km
Apogee alt
1,495.8 km
Semi-major
7,862.2 km
B*
5.5137e-4
RAAN
269.7232°
Arg perigee
73.4494°
Mean anomaly
286.8214°
Rev number
99,935

§ Raw data

COSMOS 24091 28420U 04037B   26263.01047052  .00000089  00000+0  55137-3 0  99982 28420  82.4799 269.7232 0014816  73.4494 286.8214 12.45324811999356

JSON: /api/v1/satellites/28420 · /tle

For live sub-satellite position, see the globe view (requires WebGL).

§ Visibility from observer

Set your observer location to see the next 7 days of passes ≥ 10°. The values pass through the URL so the page stays shareable.

No JS? Fill the form by hand. The geolocation button needs JavaScript.